CST,Max TemperatureF,Mean TemperatureF,Min TemperatureF,Max Dew PointF,MeanDew PointF,Min DewpointF,Max Humidity, Mean Humidity, Min Humidity, Max Sea Level PressureIn, Mean Sea Level PressureIn, Min Sea Level PressureIn, Max VisibilityMiles, Mean VisibilityMiles, Min VisibilityMiles, Max Wind SpeedMPH, Mean Wind SpeedMPH, Max Gust SpeedMPH,PrecipitationIn, CloudCover, Events, WindDirDegrees
2013-12-1,61,52,42,43,37,29,62,52,41,30.22,30.08,29.94,10,10,10,13,6,18,0.00,8,,200
2013-12-2,61,55,49,54,48,39,93,76,59,29.93,29.80,29.73,10,9,5,9,2,14,T,7,,161
2013-12-3,61,55,48,57,52,46,100,92,84,29.76,29.72,29.68,9,3,0,10,5,15,T,7,Fog,128
2013-12-4,76,68,60,63,61,57,93,77,60,29.82,29.74,29.69,10,10,8,25,13,35,0.00,7,,196
2013-12-5,71,53,35,65,44,30,89,80,70,30.15,30.01,29.82,10,8,2,22,13,26,0.48,8,Rain-Thunderstorm,353
2013-12-6,35,31,26,32,28,21,92,87,81,30.45,30.22,30.07,10,7,2,21,13,30,0.68,8,Rain,12
2013-12-7,30,26,22,27,22,17,88,82,75,30.58,30.46,30.34,10,8,5,20,12,24,0.03,8,Rain,22
2013-12-8,35,32,29,32,30,27,96,91,85,30.30,30.18,30.07,9,4,1,13,5,20,0.17,8,Rain,317
2013-12-9,34,33,31,29,27,26,85,80,75,30.31,30.23,30.17,10,10,9,15,9,20,0.01,8,Snow,12
2013-12-10,40,33,25,26,23,18,85,70,54,30.45,30.37,30.22,10,10,10,15,5,20,0.00,2,,331
2013-12-11,46,36,25,31,26,22,92,71,49,30.59,30.48,30.39,10,9,7,14,6,17,0.00,3,,7
2013-12-12,45,34,23,22,16,9,75,50,25,30.64,30.54,30.40,10,10,10,14,4,26,0.00,1,,57
2013-12-13,49,38,27,37,25,18,92,62,31,30.37,30.16,29.91,10,9,4,14,6,18,0.67,7,Rain,153
2013-12-14,45,41,36,43,37,29,96,83,70,30.16,29.92,29.81,10,6,0,18,10,23,0.61,8,Fog-Rain,286
2013-12-15,40,36,32,29,28,26,85,75,64,30.30,30.24,30.16,10,10,7,17,7,25,0.00,5,,268
2013-12-16,58,45,31,37,34,29,89,66,43,30.22,30.18,30.13,10,10,8,18,9,29,0.00,1,,210
2013-12-17,61,48,35,39,35,32,85,64,42,30.30,30.22,30.16,10,10,10,15,5,22,0.00,1,,250
2013-12-18,60,46,32,36,31,26,96,64,32,30.35,30.25,30.11,10,10,10,18,8,23,0.00,2,,160
2013-12-19,62,54,46,52,45,36,72,63,54,30.15,30.06,29.94,10,10,10,21,12,26,0.00,7,,178
2013-12-20,69,65,61,64,59,52,87,77,67,29.97,29.89,29.80,10,9,2,23,15,30,0.66,8,Rain-Thunderstorm,182
2013-12-21,76,65,53,65,59,51,93,83,73,29.78,29.64,29.48,10,9,0,36,16,49,1.44,8,Rain-Thunderstorm,211
2013-12-22,56,47,38,52,45,28,93,82,70,30.25,29.96,29.73,10,8,1,18,9,24,T,8,Rain,277
2013-12-23,39,34,29,29,25,23,78,66,54,30.52,30.43,30.27,10,10,10,18,8,24,0.00,5,,350
2013-12-24,37,31,24,25,17,12,85,62,38,30.62,30.53,30.43,10,10,10,15,7,20,0.00,1,,44
2013-12-25,50,38,25,30,22,14,70,54,38,30.43,30.38,30.32,10,10,10,12,3,16,0.00,2,,212
2013-12-26,50,40,30,30,26,22,82,59,36,30.46,30.40,30.35,10,10,10,12,4,15,0.00,1,,26
2013-12-27,57,42,27,30,27,23,85,58,30,30.48,30.41,30.37,10,10,10,6,1,10,0.00,2,,152
2013-12-28,49,42,34,41,34,28,83,66,49,30.34,30.16,29.98,10,9,4,8,3,10,0.03,7,Rain,115
2013-12-29,55,45,35,43,37,27,100,80,59,30.21,30.05,29.96,10,8,1,18,7,23,0.05,7,Rain,310
2013-12-30,35,32,28,27,23,21,78,72,66,30.37,30.28,30.20,10,10,6,16,7,21,T,8,Snow,350
2013-12-31,49,36,23,30,25,21,88,64,39,30.47,30.39,30.32,10,10,10,9,3,14,0.00,1,,200